Date String (YYYY-MM-DD hh:mm:ss) UTC,Instrument flags,absolute air pressure of the measurement (hPa),sample flow rate (lpm),inlet stack bypass flow (lpm),air temperature of the measurement (°C),ambient temperature measured by the external sensor (°C),aerosol sample conditioner tube jacket temperature (°C),OPC LED temperature (°C),internal box temperature (°C),relative humidity of the measurement (%),span deviation,mass concentration of particles derived from Lorenz-Mie calculation of OPC scattering (μg/m³),mass concentration of particles derived from Lorenz-Mie calculation of OPC scattering (μg/m³),mass concentration of particles derived from Lorenz-Mie calculation of OPC scattering (μg/m³)
DateTimeUTC,F1_M11,P_M11,Q1_M11,Q2_M11,T1_M11,T2_M11,T3_M11,T4_M11,T5_M11,U1_M11,ZSPAN_M11,X0_M11,X2_M11,X1_M11
2024-02-01 17:00:00,SystemResetWarning,0825.1,4.99,000.00,025.2,024.7,000.0,033.4,027.0,11.0,0000.0,0013.84,0006.64,0005.94
2024-02-01 17:01:00,SystemResetWarning,0825.1,5.01,000.00,025.2,024.7,000.0,033.4,027.0,11.2,0000.0,0013.39,0006.70,0006.00
2024-02-01 17:02:00,SystemResetWarning,0825.1,5.00,000.00,025.2,024.7,000.0,033.4,027.0,11.2,0000.0,0014.01,0006.79,0006.10
2024-02-01 17:03:00,SystemResetWarning,0825.1,5.00,000.00,025.3,024.7,000.0,033.4,027.0,11.2,0000.0,0015.30,0006.99,0006.24
2024-02-01 17:04:00,SystemResetWarning,0825.1,5.01,000.00,025.3,024.7,000.0,033.4,027.0,11.0,0000.0,0016.17,0007.16,0006.37
2024-02-01 17:05:00,SystemResetWarning,0825.1,4.98,000.00,025.3,024.8,000.0,033.4,027.0,11.1,0000.0,0016.47,0007.18,0006.39
2024-02-01 17:06:00,SystemResetWarning,0825.1,5.00,000.00,025.3,024.8,000.0,033.5,027.1,11.0,0000.0,0016.38,0007.14,0006.34
2024-02-01 17:07:00,SystemResetWarning,0825.1,5.01,000.00,025.3,024.8,000.0,033.5,027.1,11.0,0000.0,0016.69,0007.15,0006.33
2024-02-01 17:08:00,SystemResetWarning,0825.1,5.00,000.00,025.3,024.8,000.0,033.5,027.1,11.0,0000.0,0016.58,0007.14,0006.34
2024-02-01 17:09:00,SystemResetWarning,0825.1,5.01,000.00,025.3,024.8,000.0,033.5,027.1,11.1,0000.0,0016.61,0007.19,0006.37
2024-02-01 17:10:00,SystemResetWarning,0825.1,5.00,000.00,025.4,024.9,000.0,033.5,027.1,11.1,0000.0,0016.44,0007.19,0006.39
2024-02-01 17:11:00,SystemResetWarning,0825.1,5.00,000.00,025.4,024.9,000.0,033.5,027.1,11.0,0000.0,0016.31,0007.18,0006.39
2024-02-01 17:12:00,SystemResetWarning,0825.1,5.00,000.00,025.4,024.9,000.0,033.5,027.1,11.0,0000.0,0016.79,0007.17,0006.37
2024-02-01 17:13:00,SystemResetWarning,0825.1,5.00,000.00,025.4,024.9,000.0,033.6,027.2,11.3,0000.0,0016.81,0007.22,0006.38
2024-02-01 17:14:00,SystemResetWarning,0825.1,5.00,000.00,025.4,024.9,000.0,033.6,027.2,11.1,0000.0,0017.72,0007.31,0006.40
2024-02-01 17:15:00,SystemResetWarning,0825.1,5.01,000.00,025.4,024.9,000.0,033.6,027.2,11.2,0000.0,0017.68,0007.41,0006.45
2024-02-01 17:16:00,SystemResetWarning,0825.1,5.01,000.00,025.4,024.9,000.0,033.6,027.2,11.2,0000.0,0017.77,0007.48,0006.48
2024-02-01 17:17:00,SystemResetWarning,0825.1,5.01,000.00,025.5,025.0,000.0,033.6,027.2,11.4,0000.0,0017.65,0007.50,0006.46
2024-02-01 17:18:00,SystemResetWarning,0825.1,5.00,000.00,025.5,025.0,000.0,033.6,027.2,11.3,0000.0,0017.68,0007.49,0006.49
2024-02-01 17:19:00,SystemResetWarning,0825.1,4.99,000.00,025.5,025.0,000.0,033.6,027.2,11.4,0000.0,0018.01,0007.50,0006.50
2024-02-01 17:20:00,SystemResetWarning,0825.1,5.00,000.00,025.5,025.0,000.0,033.7,027.2,11.4,0000.0,0018.95,0007.48,0006.52
2024-02-01 17:21:00,SystemResetWarning,0825.1,5.00,000.00,025.5,025.0,000.0,033.7,027.2,11.3,0000.0,0019.31,0007.54,0006.55
2024-02-01 17:22:00,SystemResetWarning,0825.1,5.01,000.00,025.5,025.0,000.0,033.7,027.3,11.3,0005.0,0019.66,0007.62,0006.61
2024-02-01 17:23:00,SystemResetWarning,0825.1,5.00,000.00,025.6,025.1,000.0,033.7,027.3,11.1,0006.0,0020.04,0007.67,0006.65
2024-02-01 17:24:00,SystemResetWarning,0825.1,5.01,000.00,025.6,025.1,000.0,033.7,027.3,11.3,0005.9,0021.25,0007.63,0006.61
2024-02-01 17:25:00,SystemResetWarning,0825.1,4.99,000.00,025.6,025.1,000.0,033.7,027.4,11.3,0005.6,0019.92,0007.50,0006.55
2024-02-01 17:26:00,SystemResetWarning,0825.1,5.00,000.00,025.6,025.1,000.0,033.8,027.4,11.3,0005.4,0021.16,0007.37,0006.49
2024-02-01 17:27:00,SystemResetWarning,0825.1,5.00,000.00,025.6,025.1,000.0,033.8,027.4,11.4,0004.4,0021.41,0007.33,0006.48
2024-02-01 17:28:00,SystemResetWarning,0825.1,5.01,000.00,025.6,025.2,000.0,033.8,027.4,11.2,0005.5,0022.23,0007.39,0006.54
2024-02-01 17:29:00,SystemResetWarning,0825.1,5.00,000.00,025.7,025.2,000.0,033.8,027.4,11.3,0005.4,0022.37,0007.40,0006.53
2024-02-01 17:30:00,SystemResetWarning,0825.1,4.99,000.00,025.7,025.2,000.0,033.8,027.4,11.2,0005.5,0022.30,0007.37,0006.48
2024-02-01 17:31:00,SystemResetWarning,0825.1,4.99,000.00,025.7,025.2,000.0,033.8,027.5,11.2,0005.4,0021.64,0007.35,0006.40
2024-02-01 17:32:00,SystemResetWarning,0825.1,5.00,000.00,025.7,025.2,000.0,033.9,027.5,11.3,0001.2,0021.35,0007.29,0006.33
2024-02-01 17:33:00,SystemResetWarning,0825.1,5.01,000.00,025.7,025.2,000.0,033.9,027.5,11.4,0000.0,0021.80,0007.30,0006.31
2024-02-01 17:34:00,SystemResetWarning,0825.1,5.00,000.00,025.7,025.3,000.0,033.9,027.5,11.1,0000.0,0022.19,0007.25,0006.28
2024-02-01 17:35:00,SystemResetWarning,0825.0,4.99,000.00,025.8,025.3,000.0,033.9,027.5,11.3,0005.7,0020.79,0007.19,0006.27
2024-02-01 17:36:00,SystemResetWarning,0825.1,4.99,000.00,025.8,025.3,000.0,033.9,027.5,11.2,0006.3,0020.58,0007.20,0006.28
2024-02-01 17:37:00,SystemResetWarning,0825.0,5.01,000.00,025.8,025.3,000.0,033.9,027.6,11.1,0006.3,0019.59,0007.18,0006.28
2024-02-01 17:38:00,SystemResetWarning,0825.0,5.01,000.00,025.8,025.3,000.0,034.0,027.6,11.3,0001.7,0018.89,0007.17,0006.26
2024-02-01 17:39:00,SystemResetWarning,0824.9,5.00,000.00,025.8,025.3,000.0,034.0,027.6,11.2,0000.0,0018.45,0007.10,0006.18
2024-02-01 17:40:00,SystemResetWarning,0824.9,5.00,000.00,025.9,025.4,000.0,034.0,027.6,11.3,0000.0,0017.55,0007.05,0006.14
2024-02-01 17:41:00,SystemResetWarning,0824.9,5.00,000.00,025.9,025.4,000.0,034.0,027.6,11.3,0000.0,0018.16,0007.07,0006.13
2024-02-01 17:42:00,SystemResetWarning,0824.9,5.00,000.00,025.9,025.4,000.0,034.0,027.7,11.1,0000.0,0018.83,0007.08,0006.12
2024-02-01 17:43:00,SystemResetWarning,0824.9,5.02,000.00,025.9,025.4,000.0,034.0,027.7,11.0,0000.0,0018.50,0007.03,0006.10
2024-02-01 17:44:00,SystemResetWarning,0824.9,4.99,000.00,025.9,025.4,000.0,034.1,027.7,11.2,0000.0,0017.98,0006.90,0006.05
2024-02-01 17:45:00,SystemResetWarning,0824.9,4.99,000.00,025.9,025.4,000.0,034.1,027.7,11.2,0000.0,0016.12,0006.87,0006.01
2024-02-01 17:46:00,SystemResetWarning,0824.9,5.00,000.00,025.9,025.5,000.0,034.1,027.7,11.3,0000.0,0015.74,0006.92,0006.03
2024-02-01 17:47:00,SystemResetWarning,0824.9,5.01,000.00,026.0,025.5,000.0,034.1,027.8,11.1,0000.0,0015.90,0006.94,0006.03
2024-02-01 17:48:00,SystemResetWarning,0824.9,5.01,000.00,026.0,025.5,000.0,034.1,027.8,11.1,0000.0,0016.06,0006.90,0005.99
2024-02-01 17:49:00,SystemResetWarning,0824.9,5.01,000.00,026.0,025.5,000.0,034.1,027.8,11.4,0000.0,0016.82,0006.89,0005.97
2024-02-01 17:50:00,SystemResetWarning,0824.9,5.00,000.00,026.0,025.5,000.0,034.2,027.8,11.4,0000.0,0017.26,0006.94,0006.01
2024-02-01 17:51:00,SystemResetWarning,0824.9,4.99,000.00,026.0,025.6,000.0,034.2,027.8,11.3,0002.0,0017.45,0007.02,0006.05
2024-02-01 17:52:00,SystemResetWarning,0824.9,4.99,000.00,026.1,025.6,000.0,034.2,027.8,11.2,0003.8,0016.57,0007.01,0006.06
2024-02-01 17:53:00,SystemResetWarning,0824.9,5.02,000.00,026.1,025.6,000.0,034.2,027.9,11.1,0003.6,0015.56,0006.93,0006.06
2024-02-01 17:54:00,SystemResetWarning,0824.9,4.99,000.00,026.1,025.6,000.0,034.2,027.9,11.2,0003.8,0015.51,0006.99,0006.10
2024-02-01 17:55:00,SystemResetWarning,0824.8,4.99,000.00,026.1,025.6,000.0,034.3,027.9,11.4,0004.4,0015.69,0007.03,0006.12
2024-02-01 17:56:00,SystemResetWarning,0824.8,5.00,000.00,026.1,025.6,000.0,034.3,027.9,11.2,0004.3,0016.32,0007.03,0006.12
2024-02-01 17:57:00,SystemResetWarning,0824.8,5.00,000.00,026.1,025.7,000.0,034.3,027.9,11.2,0004.5,0017.41,0006.97,0006.10
2024-02-01 17:58:00,SystemResetWarning,0824.8,5.01,000.00,026.2,025.7,000.0,034.3,027.9,11.2,0005.5,0017.00,0006.89,0006.06
2024-02-01 17:59:00,SystemResetWarning,0824.8,5.00,000.00,026.2,025.7,000.0,034.3,027.9,10.8,0005.8,0016.73,0006.84,0006.04
